Wind_Speed
9 8 8 8 7 7 8 8 8 8 7 7 7 7 8 9 9 10 10 10 10 9 10 10 9 8 8 7 7 7 7 7 8 8 8 9 8 8 7 7 7 8 8 9 10 11 12 14 15 16 16 17 18 19 20 21 22 23 25 26 27 28 29 30 31 32 34 36 37 39 42 43 44 44 46 47 49 49 49 51 51 49 48 50 53 52 51
9 8 8 8 7 7 7 7 7 7 7 7 7 7 7 8 8 9 10 11 11 11 11 11 11 11 10 9 9 9 9 9 8 8 9 8 8 8 7 7 8 8 9 10 11 12 13 14 15 15 16 17 18 19 20 21 23 24 25 27 28 29 30 31 31 31 32 34 36 38 40 42 43 44 45 46 48 49 49 51 53 52 49 48 51 53 51
11 10 9 9 8 7 7 7 7 7 7 7 7 7 7 7 7 8 9 10 11 11 11 12 11 11 11 10 10 10 10 10 9 9 9 9 9 8 8 8 8 9 10 11 12 13 14 14 14 15 16 17 17 19 20 21 23 24 26 27 29 30 32 33 34 35 36 37 38 39 40 42 44 44 45 45 46 47 48 50 52 53 51 48 48 52 52
13 12 11 10 10 9 8 8 7 7 7 7 7 7 7 7 7 7 8 9 9 9 10 11 11 11 11 10 11 11 11 10 10 10 10 10 9 9 9 9 9 10 11 12 13 13 13 14 14 15 16 17 18 19 20 22 23 24 25 27 29 30 32 34 35 36 38 39 40 41 42 43 44 44 45 46 46 46 47 49 51 53 52 49 47 51 53
15 14 13 12 12 11 10 9 9 8 8 8 7 7 7 7 7 7 8 8 9 9 9 9 9 10 10 10 11 11 11 11 11 11 11 10 10 10 10 10 11 11 12 12 12 13 13 14 14 15 16 18 19 19 21 22 23 25 26 27 28 30 31 33 35 37 38 39 40 41 42 44 44 44 45 45 45 45 46 47 49 52 52 50 49 49 52
17 16 15 15 14 13 12 12 11 10 10 9 9 8 8 8 8 8 8 9 9 9 9 9 9 10 10 11 11 12 12 12 12 11 11 11 11 11 11 11 12 12 12 12 12 13 14 15 15 16 17 18 19 20 22 23 24 25 27 28 28 30 31 32 34 37 38 39 40 40 41 43 44 44 45 46 46 46 46 46 48 51 51 51 51 50 50
19 18 18 17 16 16 15 14 14 13 12 12 11 11 10 10 10 10 10 10 10 10 10 10 10 10 11 11 12 12 12 12 12 12 12 12 12 12 12 12 12 12 12 12 13 14 14 15 16 17 18 19 21 22 23 24 25 27 28 29 30 31 32 32 33 35 38 40 41 40 40 42 44 44 45 46 47 47 46 45 47 50 50 50 51 50 48
20 20 20 19 19 18 18 17 17 16 15 15 14 14 13 13 12 12 12 12 11 11 11 11 11 11 12 12 12 12 12 12 12 12 12 12 12 12 12 12 12 13 13 13 14 15 16 17 18 18 19 21 22 23 25 26 27 28 29 30 31 32 33 33 33 34 36 39 40 41 41 42 44 44 45 46 47 47 46 45 46 49 50 49 49 50 48
23 22 22 21 21 21 20 20 19 19 18 18 18 17 16 16 15 15 15 14 14 13 13 13 13 13 13 13 13 13 13 13 12 12 12 13 13 13 13 14 14 14 15 16 16 17 18 19 19 20 21 23 24 25 26 27 28 30 30 31 32 33 34 34 34 34 36 38 39 41 42 43 43 44 45 46 47 47 46 44 45 48 49 49 48 49 49
26 25 24 24 24 23 23 22 22 22 21 21 21 20 20 19 19 18 18 17 17 17 16 16 15 15 15 14 14 14 14 14 14 14 14 14 15 15 15 16 16 17 17 18 19 20 20 21 22 23 23 25 26 27 28 29 30 31 32 33 34 34 35 36 36 36 37 38 40 41 42 43 44 45 45 46 46 47 47 45 45 47 48 48 48 48 49
28 28 27 27 27 26 26 25 25 25 24 24 24 23 23 22 22 21 21 21 20 20 19 18 18 18 17 17 17 17 17 16 17 17 17 17 17 18 18 18 19 19 20 20 21 22 22 23 24 25 26 27 28 29 30 31 31 32 33 34 35 36 36 37 38 38 38 39 40 42 43 45 46 46 46 46 46 47 48 46 45 46 47 48 48 49 49
30 30 30 30 29 29 29 28 28 27 27 27 27 26 26 26 25 25 24 24 24 23 22 22 21 21 20 20 20 20 20 20 20 20 20 20 20 21 21 21 22 22 22 23 23 24 24 25 26 27 28 28 29 30 31 32 33 34 34 35 36 37 38 39 39 40 40 41 41 41 43 46 47 46 46 46 46 47 48 46 45 47 48 49 49 50 50
33 33 33 33 32 32 32 31 31 30 30 30 29 29 29 28 28 28 28 28 27 26 26 25 24 24 24 23 23 23 23 23 23 23 23 23 23 23 24 24 24 25 25 26 26 26 27 27 27 28 29 30 30 31 32 33 34 35 36 37 38 39 40 40 41 41 42 43 43 43 43 45 46 46 47 48 47 48 49 47 45 47 50 51 51 51 51
35 35 35 35 35 35 35 34 34 34 33 33 32 32 32 31 31 31 31 31 31 30 29 29 28 28 27 27 26 26 26 26 25 25 26 26 26 26 26 27 27 27 28 28 29 29 29 29 29 30 31 31 32 32 33 34 36 37 38 38 39 40 41 42 42 43 44 44 44 44 43 44 46 46 48 49 49 49 50 50 48 48 51 52 52 51 51
34 36 38 38 38 38 38 38 38 37 37 36 36 35 35 35 34 34 34 34 34 33 33 33 32 31 31 30 30 29 29 29 28 29 29 29 29 29 29 29 30 30 30 31 31 31 31 32 32 32 32 33 33 33 34 35 36 38 39 40 40 41 43 43 44 44 45 47 47 46 45 45 46 47 48 50 51 51 52 53 50 49 51 53 53 52 51
30 33 35 38 40 41 41 41 41 41 40 40 39 39 38 38 37 37 37 37 37 37 36 36 36 35 35 34 33 33 33 32 32 32 32 32 32 32 32 32 32 33 33 33 34 34 34 34 35 35 35 35 36 36 36 37 38 39 40 41 41 42 43 44 45 45 46 48 48 48 48 48 47 48 49 51 52 52 54 55 52 51 53 54 53 53 52
30 31 32 35 37 40 42 43 43 43 43 43 43 43 42 42 41 41 40 39 39 39 39 39 38 38 38 38 37 37 36 36 35 35 35 35 35 35 35 35 35 36 36 36 36 36 36 37 37 37 37 38 38 38 38 38 39 40 41 42 42 43 43 44 45 46 47 48 48 48 49 49 49 50 50 51 52 53 55 56 54 53 54 55 54 53 52
27 30 32 34 35 37 39 42 44 45 46 46 46 46 46 46 45 45 44 43 43 42 42 41 41 41 41 41 40 40 40 39 39 38 38 38 38 38 38 38 38 39 39 39 39 39 39 40 40 40 40 40 40 40 40 40 41 42 42 43 44 44 43 44 45 46 47 49 49 49 48 49 51 52 52 52 53 54 55 55 54 54 54 54 54 53 52
26 28 31 34 36 37 38 39 42 44 46 47 48 48 48 48 48 48 48 48 47 46 45 45 44 44 44 44 43 43 43 43 42 42 42 41 41 41 41 41 42 42 42 42 42 42 42 42 43 43 42 42 42 42 42 42 43 43 43 44 45 45 44 43 45 47 48 49 51 51 50 50 53 53 52 52 54 55 55 54 53 53 54 54 52 51 50
28 28 30 32 35 37 38 39 40 42 45 47 48 48 49 49 49 50 50 51 50 50 50 49 48 48 47 47 47 47 46 46 46 46 46 46 45 45 45 45 45 45 45 45 45 45 45 45 45 45 44 44 44 44 43 43 42 43 44 44 45 45 44 43 44 46 48 50 52 52 52 53 55 55 53 53 54 54 54 53 52 52 54 54 52 50 49
30 30 31 33 34 36 38 40 41 41 43 45 47 48 49 49 50 50 51 52 52 52 52 52 52 51 51 50 50 49 49 49 49 49 49 49 49 49 49 49 48 48 48 48 48 48 48 47 47 47 46 46 46 45 45 43 42 43 44 45 45 44 42 42 43 45 48 51 51 51 52 54 57 56 54 54 55 55 54 53 52 52 53 54 52 49 48
31 32 33 34 35 37 38 40 42 42 43 44 46 48 49 49 49 49 50 51 52 53 53 54 53 53 53 53 52 52 52 51 51 51 51 52 52 52 52 52 52 51 51 50 50 50 49 49 49 48 47 47 47 45 46 45 43 43 45 46 46 43 41 42 43 44 47 49 50 51 52 54 57 57 54 54 54 55 54 54 53 53 54 54 52 49 47
34 35 36 36 36 38 39 41 42 43 44 44 45 47 49 49 49 49 50 50 50 51 53 53 54 54 54 54 53 53 53 53 52 52 52 52 52 53 53 53 53 53 52 52 52 51 51 50 50 49 48 48 48 46 46 45 44 44 46 47 46 43 42 42 43 45 46 47 48 52 54 54 56 56 55 54 55 54 54 54 53 53 54 53 51 48 46
37 38 39 39 39 39 40 42 43 44 45 46 46 46 47 48 49 49 49 50 50 50 51 51 52 54 54 54 54 54 54 53 53 52 53 53 53 53 53 53 54 53 53 53 53 52 52 51 51 50 49 49 49 47 46 46 46 45 47 48 46 44 43 43 44 46 47 46 48 52 55 56 57 56 55 55 55 54 53 54 54 54 53 50 48 46 44
39 41 42 42 42 41 41 42 44 44 45 47 47 47 47 48 48 48 48 49 49 49 49 49 49 51 52 53 54 54 53 53 53 53 53 53 53 53 53 53 54 54 54 54 54 53 53 53 52 52 51 50 50 49 48 48 47 47 48 48 45 44 44 43 44 46 47 47 49 53 55 56 56 56 55 55 55 54 53 53 53 53 51 47 44 43 43
41 43 44 45 44 43 42 43 44 45 46 46 48 48 47 47 47 47 48 48 48 49 49 48 48 49 50 50 51 51 51 52 52 52 52 53 53 53 53 54 54 54 54 55 54 54 54 53 53 53 52 51 51 50 48 48 48 49 49 46 42 42 42 42 43 45 45 47 51 54 57 56 54 54 55 56 56 55 54 53 53 53 50 47 44 43 44
42 44 45 46 46 45 44 44 45 46 46 47 47 48 48 48 47 47 47 47 47 48 49 49 48 48 48 47 48 49 49 49 50 50 51 51 51 52 52 53 53 53 53 53 53 53 53 52 52 52 51 51 51 50 49 50 50 52 51 44 37 38 41 42 42 44 46 48 51 55 59 58 54 53 56 57 56 56 55 54 54 54 52 50 47 45 45
44 46 47 47 46 46 46 46 47 48 48 48 47 48 48 48 47 47 47 47 46 47 48 48 48 48 47 46 46 47 47 47 47 47 48 48 49 50 51 51 52 52 52 52 51 51 51 50 51 50 50 51 51 50 50 51 52 53 49 40 34 37 41 42 42 44 48 49 50 54 58 57 55 55 56 56 56 57 55 54 55 55 53 51 49 47 46
47 48 49 48 47 45 45 46 48 49 49 49 48 48 47 47 47 46 46 46 47 47 48 47 47 47 47 46 46 46 46 46 46 46 46 47 48 48 49 50 50 51 51 51 51 50 50 50 50 49 49 50 51 51 51 52 54 53 46 38 36 39 41 41 42 45 49 50 50 52 55 55 55 55 56 55 56 56 55 54 54 54 52 50 49 48 47
49 50 50 49 47 46 44 44 47 49 49 49 49 48 47 47 46 45 45 45 46 47 48 48 47 46 47 45 45 45 46 46 46 46 46 47 47 47 48 48 48 49 49 49 49 49 49 49 48 48 49 49 50 52 53 53 54 51 43 38 39 41 40 39 41 45 48 50 51 52 53 53 54 55 55 54 55 56 55 53 53 52 51 50 48 47 47
50 51 51 50 48 46 45 44 45 48 49 49 49 49 47 47 46 45 45 45 45 46 48 48 47 47 47 45 45 46 46 46 47 48 48 48 47 47 48 47 47 48 48 48 48 48 48 47 48 48 48 48 50 52 52 53 54 49 42 40 42 42 39 38 40 43 47 51 53 53 52 52 54 55 54 53 54 55 55 53 52 51 50 49 48 47 47
51 52 51 50 48 47 45 44 44 46 48 48 49 49 48 47 47 46 45 44 44 44 45 47 47 47 47 46 45 45 46 47 48 50 51 51 50 49 49 49 49 49 49 48 48 48 47 46 47 47 47 48 51 52 52 53 51 46 41 42 44 42 40 40 40 43 47 50 53 55 54 53 54 55 55 54 54 55 55 53 51 50 49 48 47 48 48
51 52 51 50 48 46 45 44 43 45 48 48 48 48 48 47 47 47 46 45 44 43 43 44 45 46 47 46 46 46 47 49 49 50 51 52 52 51 51 51 51 51 50 50 50 50 48 48 48 49 49 49 51 53 53 51 47 43 42 44 44 44 44 43 42 44 47 49 52 55 56 56 55 55 56 56 55 55 56 54 53 52 51 49 49 50 51
51 52 51 49 48 46 45 44 43 44 47 48 47 47 47 47 47 47 47 46 45 44 42 41 41 42 43 45 45 46 47 49 49 49 48 48 50 51 52 53 53 53 53 52 52 51 51 51 51 52 51 51 52 53 51 47 45 45 46 46 46 46 47 46 45 47 49 49 51 54 57 57 57 56 56 57 57 57 57 56 55 55 55 53 52 53 54
51 51 50 49 47 46 45 44 44 44 46 48 48 47 47 47 47 47 47 47 46 45 43 42 40 40 40 41 42 43 44 47 48 48 48 47 48 50 52 53 53 54 54 54 53 52 53 54 55 55 54 54 54 53 50 47 47 48 49 48 49 51 52 51 50 50 51 50 51 54 56 58 57 57 58 58 58 58 58 58 57 58 58 57 56 57 58
49 49 49 47 47 46 45 44 44 44 45 47 48 47 47 47 47 47 47 47 47 46 44 42 41 40 40 41 41 41 43 44 46 47 49 49 50 52 54 54 54 55 55 55 53 53 54 56 58 57 57 56 54 52 51 51 52 51 51 52 53 54 55 56 55 53 52 52 51 53 56 58 58 59 59 58 58 58 58 58 59 60 60 60 61 62 63
48 47 46 45 45 45 45 44 44 44 45 46 47 47 47 47 47 47 46 45 45 45 44 43 41 40 40 41 42 42 44 45 46 48 50 51 52 54 55 55 56 57 57 56 55 56 57 59 60 60 59 57 53 52 52 53 53 52 53 55 55 55 56 56 55 53 51 50 49 50 52 55 57 58 58 57 56 56 57 58 60 61 62 63 64 65 66
46 45 44 43 44 44 44 44 44 44 44 45 47 48 48 48 48 48 46 45 44 43 43 42 41 40 41 42 42 44 46 47 49 51 52 54 56 57 57 57 59 59 59 57 57 57 59 61 61 61 60 56 51 50 51 53 53 53 55 56 56 55 56 55 54 53 51 49 48 48 49 49 51 53 55 55 56 56 58 59 60 61 62 63 64 65 66
44 43 42 41 41 42 43 43 44 44 44 45 46 48 49 48 48 49 48 46 44 43 42 41 40 41 42 42 42 44 46 47 47 50 52 54 56 58 58 59 60 61 59 57 56 57 59 60 60 60 59 55 50 49 51 52 52 53 55 55 55 56 56 56 55 54 52 50 49 48 48 48 47 49 51 53 55 56 58 61 62 62 63 63 64 64 64
43 42 40 39 39 40 42 43 44 44 44 45 45 47 48 48 48 49 50 48 46 45 44 44 43 43 44 43 44 45 47 47 47 49 51 52 54 55 56 57 58 59 57 54 53 55 56 57 57 57 55 51 48 48 49 50 51 52 53 54 55 55 56 55 54 52 51 50 48 47 46 46 46 47 48 50 52 55 57 60 62 63 63 63 63 64 64
43 41 39 37 37 38 40 42 44 45 44 44 45 45 46 47 48 49 50 50 49 48 47 46 47 47 47 46 46 48 50 50 50 51 52 53 54 55 55 56 57 57 55 53 53 53 53 53 52 50 46 44 43 43 44 47 49 51 52 53 53 53 52 51 50 50 49 49 48 47 47 48 49 48 46 46 48 51 54 56 58 61 62 62 62 63 64
43 41 39 37 36 36 37 41 43 45 45 44 43 43 43 44 46 49 50 51 52 51 50 49 48 48 49 48 49 50 51 52 53 54 55 55 57 57 57 58 59 59 57 56 55 55 54 53 49 43 39 39 40 40 40 43 45 47 49 50 49 48 47 47 47 48 48 48 49 49 49 50 51 52 52 50 49 49 51 52 54 56 58 59 60 61 62
44 42 40 38 36 36 37 39 41 44 45 44 42 41 41 42 44 46 49 51 53 54 53 52 51 51 50 50 51 51 52 54 55 56 57 58 59 59 60 60 60 60 60 59 58 57 57 54 48 42 40 40 40 38 38 41 43 44 45 46 46 46 46 47 48 49 49 50 51 51 51 52 53 54 56 57 57 55 55 55 56 56 56 57 58 59 60
45 44 42 40 38 37 37 38 40 41 42 42 42 42 42 43 44 45 46 49 52 55 56 56 56 55 55 55 54 54 55 56 57 57 58 59 59 60 60 60 60 60 61 60 59 59 57 53 48 46 46 45 42 41 43 44 44 44 46 47 47 48 49 50 51 52 52 53 53 53 54 54 54 55 57 59 60 61 60 60 61 61 61 61 61 61 61
47 45 44 42 40 39 38 38 39 39 39 41 42 44 44 44 45 46 46 47 50 53 56 58 59 59 59 59 58 59 59 59 59 59 60 61 61 61 61 61 61 61 60 59 58 57 55 53 52 52 51 50 49 50 49 48 47 48 49 51 52 53 54 54 56 57 57 58 58 58 58 58 59 59 60 61 63 65 65 65 65 65 64 64 64 63 63
48 47 46 45 43 41 40 39 39 38 38 41 43 44 44 45 46 47 47 48 49 51 53 56 59 61 62 62 62 62 62 63 63 63 63 63 64 63 62 63 62 61 60 59 57 54 53 53 54 54 54 55 56 56 54 52 51 51 52 54 56 58 59 60 61 61 62 63 64 64 64 65 65 65 65 65 66 67 68 68 69 69 68 67 66 65 64
50 50 49 48 46 44 42 40 39 39 40 42 43 43 44 45 47 48 49 50 50 51 52 54 56 59 62 64 64 65 65 65 65 65 65 66 67 65 64 64 63 61 60 58 55 53 53 55 55 56 58 59 59 59 59 58 56 56 56 57 59 60 62 63 64 65 66 67 68 68 69 69 70 70 70 70 69 69 70 71 71 72 72 72 70 68 66
52 52 51 51 49 47 44 42 41 42 42 43 43 44 45 46 48 49 51 52 53 54 55 55 56 57 58 61 63 66 67 67 68 67 67 68 69 68 67 67 65 62 59 57 55 53 55 58 58 59 61 62 62 61 62 62 60 60 60 60 61 62 63 64 65 67 68 69 70 71 71 72 73 73 74 73 72 71 71 72 73 74 74 75 74 72 70
53 54 54 53 52 50 47 46 45 44 44 44 45 45 46 47 49 51 52 54 55 56 57 58 59 59 59 60 61 63 65 67 69 69 68 69 70 69 69 70 69 63 59 58 57 57 58 61 62 62 63 64 64 64 65 65 65 65 65 65 65 66 66 67 68 69 70 71 72 72 73 74 75 76 76 76 76 74 73 73 74 74 75 76 75 75 73
56 56 56 56 55 53 51 50 49 47 47 47 47 47 48 49 50 52 54 55 57 58 59 60 61 62 62 62 62 63 63 64 66 68 69 69 70 70 71 72 70 64 60 60 62 62 63 65 66 65 65 66 67 67 67 68 68 68 68 69 69 69 69 70 71 71 72 72 73 74 75 76 77 78 79 79 78 78 77 76 76 76 76 76 75 75 75
59 59 59 58 57 56 55 54 52 51 50 49 49 50 51 52 53 54 55 57 58 59 61 62 63 64 65 65 65 65 64 65 65 66 67 66 67 69 71 72 69 65 63 63 64 64 65 66 67 67 67 67 68 67 67 68 68 68 69 70 71 71 72 73 73 74 74 74 75 76 77 78 79 80 81 81 80 80 79 79 78 78 78 77 75 75 75
63 62 61 60 60 59 58 57 55 54 53 52 52 53 53 53 54 56 57 59 61 62 63 64 65 66 67 68 68 68 68 68 67 67 66 64 63 65 67 67 65 63 63 63 63 64 65 65 66 66 66 66 66 66 67 68 69 69 70 71 73 74 74 75 75 76 76 76 77 78 79 79 79 80 81 81 81 81 81 80 79 79 78 77 76 76 77
Wind_Direction
200 200 199 199 200 202 205 209 212 214 217 223 230 237 243 247 249 251 254 257 261 268 275 280 287 294 296 300 311 321 330 339 344 344 347 349 349 350 349 348 349 347 345 344 344 344 344 345 349 351 353 354 354 355 355 355 356 356 356 356 355 355 355 354 355 355 353 351 351 351 350 350 350 350 350 350 351 351 351 350 350 353 356 353 353 358 0
211 212 212 212 211 211 212 216 218 221 223 227 236 244 251 255 256 256 259 263 266 270 275 277 282 289 293 295 303 311 318 325 330 333 335 337 337 339 338 337 339 338 337 337 338 338 339 342 346 350 351 352 351 351 351 352 353 353 353 353 352 351 350 349 350 351 350 348 349 350 348 348 348 348 349 350 350 349 348 348 348 349 353 354 352 355 359
216 219 221 223 223 222 222 224 226 229 232 236 242 249 256 261 264 265 266 268 271 272 274 277 281 287 291 294 300 306 311 316 320 322 324 325 325 326 328 329 330 330 329 331 332 334 337 340 344 347 348 348 347 347 348 349 350 350 350 350 349 348 347 346 346 346 348 347 347 348 348 347 347 347 348 349 349 347 346 347 346 346 350 352 351 351 355
218 221 224 227 229 230 230 231 233 236 239 243 247 249 255 260 263 266 269 271 273 274 275 278 282 287 289 293 297 303 307 309 312 313 315 316 315 315 317 320 322 323 324 326 329 332 335 338 341 343 344 344 343 343 344 345 346 347 346 346 345 345 344 345 344 344 346 346 346 346 346 346 346 346 346 347 347 346 346 346 344 343 345 350 350 350 352
218 221 224 228 230 232 233 234 236 239 241 245 249 250 253 257 258 261 266 270 274 276 278 280 283 286 288 291 295 299 302 304 305 306 307 309 308 307 309 312 314 317 320 322 326 330 332 335 336 337 339 340 339 339 340 341 342 342 342 341 341 341 342 343 343 342 343 344 344 344 345 344 344 345 345 345 344 344 346 345 343 340 342 346 350 350 350
220 222 225 227 229 231 234 235 236 239 240 242 246 249 251 255 257 260 263 267 270 274 277 279 282 284 286 289 292 294 297 297 299 300 301 302 302 303 304 307 310 313 316 318 322 325 327 330 331 331 332 335 335 335 335 336 337 337 337 337 337 337 338 340 342 341 340 341 342 343 344 343 343 343 344 343 342 343 345 345 342 338 339 344 348 350 350
226 226 227 228 229 231 233 234 236 238 239 241 244 246 248 252 255 257 260 263 265 267 270 273 276 279 282 285 288 291 293 294 295 296 296 296 297 299 301 303 306 308 310 313 317 320 322 324 327 326 326 328 331 331 331 332 332 331 332 332 333 334 335 336 338 340 339 338 340 342 342 342 341 342 342 341 341 342 343 343 340 336 339 343 345 348 349
234 233 233 232 232 232 233 235 236 237 239 241 243 246 247 250 251 252 255 258 259 260 263 266 270 274 278 281 285 288 290 292 293 293 293 294 295 296 298 300 302 304 306 308 311 315 317 318 321 322 322 323 325 327 327 327 327 327 328 329 330 331 332 332 334 337 336 335 337 338 340 340 340 340 340 340 341 341 340 341 338 335 338 341 342 345 347
237 239 239 239 238 237 237 237 237 238 239 241 243 246 247 249 250 251 252 254 255 257 259 262 265 269 273 276 280 282 284 287 289 290 290 291 292 295 296 297 299 301 303 305 307 310 312 314 316 317 318 320 320 322 323 323 324 324 325 326 327 328 329 329 330 333 333 332 334 335 337 338 337 337 338 339 340 338 337 339 338 335 337 340 341 343 345
238 239 241 242 242 242 241 241 240 240 241 242 244 245 247 249 250 251 252 253 255 256 258 260 262 264 268 271 273 276 278 281 283 284 285 286 288 291 292 294 296 297 300 302 304 307 309 311 312 313 315 317 317 318 319 320 321 322 322 324 324 325 326 326 327 330 330 330 332 333 334 334 334 335 337 337 337 335 335 338 337 335 336 338 340 342 343
242 242 242 242 243 244 244 244 244 243 243 244 245 246 247 249 250 251 252 253 255 256 257 258 259 261 263 265 268 270 273 275 277 279 281 282 284 287 289 290 292 294 297 299 301 303 305 307 309 310 311 313 314 315 316 317 319 319 320 321 322 323 324 324 324 326 328 329 330 331 331 331 332 335 335 335 334 332 333 337 336 334 335 336 338 341 342
249 248 247 246 246 245 245 245 246 246 245 245 246 247 248 249 250 251 252 253 255 256 257 258 258 259 261 262 264 267 269 271 273 275 276 278 281 283 285 287 289 291 293 295 297 299 301 302 305 306 308 309 311 312 314 315 316 317 318 319 320 321 322 322 323 324 325 326 327 329 330 330 330 332 332 331 331 330 331 335 335 333 334 335 337 341 341
254 254 254 253 252 250 249 248 247 247 247 247 247 248 249 249 251 252 253 254 255 256 257 258 259 260 261 262 264 265 266 268 270 271 273 275 278 280 282 284 286 287 289 291 293 294 297 299 301 303 305 306 308 310 311 313 315 316 316 318 319 319 320 321 322 322 323 324 325 328 329 328 327 328 328 327 328 327 329 333 334 332 332 334 337 341 341
259 258 258 257 257 256 255 253 252 250 249 248 248 248 249 249 251 253 254 255 256 256 257 259 259 260 262 263 264 266 266 267 269 270 272 274 276 278 279 281 283 285 286 288 290 291 293 295 297 299 301 303 305 307 309 310 312 314 315 316 317 318 318 320 321 320 321 321 323 325 326 325 324 325 325 325 326 326 327 331 333 333 331 333 337 340 340
266 264 262 261 260 259 259 258 257 256 254 252 251 250 250 250 251 252 254 256 257 258 258 259 260 261 262 263 265 266 267 268 269 270 272 274 276 277 278 280 282 283 285 286 288 289 291 293 294 295 297 299 301 303 305 307 310 311 313 315 316 316 317 319 320 320 319 320 321 322 323 322 323 324 323 323 324 325 327 330 333 333 331 332 336 339 340
276 273 270 267 265 263 262 261 260 260 259 258 256 254 253 252 252 252 253 255 257 259 259 260 262 262 263 264 265 266 267 268 269 271 272 274 275 276 278 280 281 283 284 285 287 288 290 291 292 294 296 297 299 301 303 306 308 309 311 313 314 314 316 317 317 318 318 318 319 320 321 321 321 322 322 322 323 325 327 329 332 333 331 332 337 339 341
281 280 278 276 273 269 266 264 263 262 261 261 260 259 258 257 256 255 255 255 255 257 259 260 262 263 264 265 266 266 267 268 269 270 272 273 275 276 277 279 280 282 283 284 286 287 289 290 291 293 294 296 298 300 302 305 306 307 309 310 310 311 313 314 314 315 315 315 316 317 318 319 319 320 321 322 324 326 327 329 332 333 332 334 338 340 340
291 285 281 279 278 276 273 270 267 265 263 262 262 261 261 261 260 259 258 257 257 257 258 258 261 262 264 265 266 267 268 268 269 270 271 272 274 275 276 278 279 281 282 283 285 286 287 289 290 291 293 295 297 298 301 303 304 305 306 307 307 308 310 311 311 311 312 313 313 314 316 317 317 318 321 323 325 326 327 329 332 333 333 335 339 339 340
309 299 290 283 280 278 278 276 273 269 267 265 264 263 262 262 262 262 261 261 260 260 260 259 260 261 262 264 265 266 267 268 269 270 271 272 273 274 275 277 278 280 281 282 284 285 286 288 289 290 292 293 294 296 299 300 302 303 304 304 305 306 307 308 308 309 310 310 310 312 314 315 316 318 321 324 324 325 326 329 332 332 332 335 338 339 339
318 313 304 295 287 281 278 277 276 274 271 268 266 265 264 263 263 263 263 263 263 263 263 262 262 263 263 264 265 266 267 268 269 270 271 272 273 274 275 276 277 279 280 281 282 284 285 286 287 288 290 291 292 294 295 297 299 300 301 301 302 304 306 307 307 307 308 308 310 312 314 315 315 317 321 322 323 323 325 327 330 331 331 333 337 339 338
320 318 313 306 298 290 283 279 277 276 274 271 268 267 266 265 265 264 264 264 263 263 264 264 264 265 265 266 267 267 268 269 270 271 272 273 273 274 275 276 277 277 278 279 281 282 282 283 285 286 287 288 289 291 292 293 295 297 298 298 300 302 305 306 306 306 306 308 310 311 312 312 312 315 319 321 321 321 323 325 327 328 329 331 334 337 337
320 319 316 312 305 298 291 284 280 278 276 274 271 268 267 266 266 266 265 265 265 264 264 264 264 265 266 266 267 268 270 271 272 272 273 274 275 275 276 277 277 278 278 279 279 280 281 282 283 284 285 286 287 288 290 292 294 295 296 297 299 303 306 305 304 304 304 306 308 307 307 308 309 312 317 318 318 319 321 323 325 326 327 329 331 333 335
319 318 317 314 309 302 295 289 284 280 278 277 274 270 267 266 266 266 266 266 266 266 266 265 265 265 266 266 267 268 269 271 272 273 274 275 276 277 278 278 279 279 279 279 280 280 281 281 282 283 284 285 286 287 289 291 293 295 295 296 299 304 306 304 302 300 301 305 306 304 305 307 308 310 314 315 316 318 320 321 323 324 325 327 329 331 333
319 319 318 316 312 305 297 290 285 282 280 279 277 274 269 266 265 266 266 267 267 267 267 267 267 266 266 266 267 267 268 269 271 272 273 275 276 277 278 279 279 280 280 280 280 281 281 282 283 284 285 286 287 288 289 291 293 295 296 297 300 303 304 303 300 298 301 304 304 302 303 305 306 309 312 312 313 316 318 319 320 321 323 325 328 330 332
319 319 319 318 315 308 299 289 283 280 279 279 279 277 273 268 266 266 266 267 268 268 268 268 268 268 268 268 268 268 269 270 271 272 273 274 275 276 277 278 278 279 280 280 280 281 282 282 283 284 285 286 287 288 290 292 293 294 296 298 301 303 303 300 297 298 302 304 302 300 301 303 306 308 310 310 312 314 315 317 318 319 321 325 328 329 330
318 319 320 320 317 311 301 289 281 277 277 277 278 278 277 272 268 266 266 267 268 269 268 268 268 269 269 270 270 269 270 270 271 272 273 274 274 275 276 277 277 278 278 279 279 280 281 282 283 284 285 285 286 287 289 290 292 293 295 297 302 304 302 298 296 299 303 303 300 299 299 302 306 307 307 309 310 312 313 315 315 317 319 322 325 327 328
318 319 320 320 319 312 302 290 280 274 273 274 275 277 277 275 271 268 266 267 269 270 269 269 269 270 270 270 271 271 270 271 271 272 273 274 275 276 276 277 278 278 278 278 279 279 280 281 282 283 284 285 285 286 287 289 291 292 294 297 302 302 298 296 297 300 302 301 299 298 300 304 307 307 306 308 309 310 311 312 313 315 317 319 322 324 326
317 318 319 320 320 314 304 291 280 273 270 271 272 274 276 276 275 271 268 267 268 270 271 270 270 271 271 271 271 272 272 272 272 273 274 275 276 276 277 277 278 278 278 279 279 280 280 281 282 283 284 284 284 285 286 288 290 291 292 297 301 298 294 295 298 299 300 300 299 298 300 304 306 305 305 306 307 307 309 310 311 314 316 319 321 322 323
316 318 319 320 320 316 306 292 279 272 269 269 269 271 273 275 276 275 272 269 269 270 271 271 270 271 272 272 272 273 273 273 273 274 275 275 276 276 277 277 277 278 279 279 279 280 280 281 282 283 284 284 284 285 286 287 288 289 292 296 298 294 293 294 294 295 296 297 296 296 298 300 301 301 302 303 304 305 307 309 310 313 316 318 320 320 320
315 317 319 321 321 318 309 295 280 271 268 268 268 268 271 274 275 275 275 273 271 271 271 271 271 271 272 273 274 275 275 274 274 274 274 275 275 276 277 277 278 278 279 279 279 279 280 281 282 282 283 284 284 285 286 287 287 290 294 296 295 293 293 293 292 292 293 294 293 293 295 296 297 297 299 302 303 304 306 308 310 312 315 317 318 317 317
314 316 318 321 323 320 311 298 281 269 267 268 268 267 269 272 274 275 276 275 275 273 272 272 271 271 272 273 274 276 276 276 276 275 274 274 274 274 275 276 277 277 278 279 279 279 280 281 281 281 282 282 283 284 286 287 288 292 296 294 291 292 294 293 292 291 291 291 291 292 293 295 296 297 299 301 303 304 305 307 309 311 313 314 315 314 314
313 315 318 321 324 322 315 302 284 269 264 266 268 268 268 270 272 274 276 277 277 277 276 275 274 272 272 272 273 275 276 277 279 278 275 273 272 272 273 273 274 275 276 277 278 279 279 279 280 281 281 281 281 283 285 287 291 296 297 291 289 293 295 294 293 292 291 291 292 292 293 294 295 297 298 300 302 303 303 306 308 309 311 312 312 312 312
311 314 318 322 325 324 318 306 290 272 263 264 267 268 268 269 270 273 276 278 279 279 279 279 277 276 274 272 272 273 275 277 279 279 276 272 269 269 271 271 272 274 275 276 278 278 278 278 279 280 280 280 281 282 285 290 295 297 294 290 291 293 294 295 295 294 292 292 293 293 294 294 294 296 298 300 302 302 303 305 306 307 309 310 311 311 312
311 314 318 323 327 327 320 310 296 279 267 263 265 267 268 270 271 272 274 277 279 281 282 282 282 280 278 276 274 273 273 275 276 276 275 272 268 267 269 271 272 272 274 275 276 277 278 278 279 279 280 280 280 282 288 295 296 293 292 292 293 293 293 294 295 293 292 292 292 292 293 293 294 295 298 300 302 303 304 305 306 306 307 310 311 312 313
311 315 320 325 328 329 323 313 301 287 273 265 264 266 267 269 270 272 273 275 278 280 283 285 285 284 282 280 278 275 274 274 274 274 274 272 270 269 271 273 274 274 274 274 276 278 279 279 279 279 280 280 282 286 292 295 293 292 293 294 293 292 294 294 293 291 291 292 292 292 293 293 294 295 296 298 299 300 302 304 305 306 308 310 312 312 314
312 316 321 326 330 330 326 316 304 292 281 271 266 266 267 268 268 270 272 275 277 280 282 285 287 288 284 281 280 278 275 274 274 274 274 273 273 273 274 275 276 276 276 277 279 280 280 280 280 280 280 281 284 289 292 292 291 293 293 292 291 292 294 295 294 293 292 292 293 292 292 293 294 295 295 296 297 298 300 303 305 306 309 311 312 313 314
313 317 322 328 331 332 328 319 307 297 288 279 271 267 267 268 268 268 269 272 276 279 281 283 286 288 286 282 280 279 277 275 275 275 275 276 276 275 276 277 278 278 278 280 281 282 281 281 282 282 282 283 287 290 291 291 292 292 291 289 289 291 292 294 295 296 296 295 295 293 293 294 294 294 293 294 295 297 300 303 305 307 309 310 311 312 313
314 319 324 329 333 334 330 322 312 303 294 286 278 271 268 268 269 268 268 270 273 276 279 282 284 286 285 284 281 279 277 275 275 276 276 277 277 277 278 278 278 278 279 281 282 282 283 283 284 284 284 285 288 291 292 293 293 291 289 288 288 289 290 291 293 295 296 298 298 296 295 295 295 293 292 292 294 297 301 304 306 308 309 309 310 310 311
315 319 325 330 334 335 332 326 318 309 299 290 284 278 273 271 271 271 269 269 270 272 275 278 280 281 282 282 282 280 278 278 278 278 277 277 278 278 279 279 279 280 281 281 282 283 284 284 286 287 287 288 290 292 293 293 292 290 288 288 287 287 288 289 290 293 295 298 300 301 300 299 297 295 294 292 292 294 297 300 303 305 306 307 308 309 309
314 318 323 329 333 335 333 330 324 316 305 295 290 285 281 277 275 274 272 270 270 271 272 273 275 276 277 279 280 280 280 280 280 279 279 280 281 281 281 282 281 282 283 285 286 285 285 287 289 291 293 295 295 294 292 290 289 287 286 286 286 287 287 288 289 291 293 296 299 302 304 304 303 301 299 296 293 292 293 295 299 302 303 305 306 306 307
312 316 321 326 330 333 333 332 329 325 316 305 297 292 289 285 280 278 276 274 272 271 271 272 272 273 275 276 277 278 279 279 280 280 280 281 282 282 283 283 283 284 287 289 289 288 289 291 295 299 303 304 300 295 291 288 286 285 283 283 284 284 285 286 288 289 291 294 296 299 303 305 307 306 305 303 301 299 298 298 300 302 304 306 307 307 306
310 313 317 321 325 329 331 331 330 329 326 317 307 301 298 294 288 282 279 277 275 273 272 272 272 273 274 274 275 276 277 278 279 280 280 281 281 282 282 282 283 286 288 289 289 290 293 296 300 304 308 306 301 296 292 287 284 282 280 280 281 282 282 284 286 288 291 294 296 299 301 304 306 307 307 307 306 306 305 304 303 304 305 306 307 308 307
307 310 313 317 320 323 326 329 330 331 330 326 319 310 304 300 296 290 284 280 278 276 275 274 273 273 274 274 274 275 276 277 278 280 280 280 281 281 281 281 282 284 286 287 288 291 294 297 301 304 305 302 299 294 288 285 283 281 279 279 279 280 281 283 285 288 291 293 295 297 298 300 301 303 304 305 306 306 306 306 306 306 306 306 306 307 308
306 308 310 313 315 318 320 325 328 330 329 328 325 319 310 303 300 298 293 287 282 279 278 277 276 275 274 274 274 275 276 277 278 279 280 281 280 280 280 281 282 283 284 285 288 290 293 296 298 298 297 296 294 289 285 284 282 280 279 279 280 280 282 283 285 287 289 290 292 294 295 296 297 298 299 300 302 302 303 303 304 305 306 306 306 307 307
303 305 307 309 311 313 316 319 323 325 325 324 324 322 317 310 304 301 299 295 290 285 281 279 278 277 277 276 276 276 276 277 277 278 279 280 280 280 280 281 281 281 282 284 285 288 291 293 293 292 292 291 288 286 284 283 281 279 278 280 281 282 284 285 286 287 289 290 291 292 292 293 293 294 294 295 297 299 300 301 301 302 303 303 304 306 307
302 303 304 305 308 310 312 315 317 317 318 319 320 319 318 316 311 306 302 299 296 293 289 284 281 279 279 278 278 278 278 278 278 278 279 280 280 280 280 280 280 280 281 282 284 286 288 289 288 288 288 286 284 282 282 280 279 278 278 279 281 283 284 285 286 287 288 289 290 291 291 292 292 293 293 294 295 297 299 300 301 302 302 302 302 304 305
300 300 301 303 305 307 309 311 311 309 311 313 315 314 315 315 314 310 306 302 298 296 294 291 288 284 282 280 279 279 279 279 280 280 280 281 281 280 280 280 280 280 280 282 284 286 287 286 285 285 284 282 281 281 281 279 278 278 277 278 279 281 282 284 285 286 287 287 288 288 289 290 291 291 292 293 294 295 297 299 301 302 302 302 302 303 303
297 298 299 300 302 305 306 305 304 304 305 307 308 309 310 311 310 309 308 305 302 299 297 295 294 291 288 285 283 281 279 279 279 279 280 281 281 281 280 279 278 278 279 282 284 285 285 283 282 281 281 281 281 280 279 279 278 278 278 279 280 281 282 283 283 284 285 286 286 287 288 288 289 290 290 291 292 293 295 297 299 300 301 302 302 303 303
295 296 297 298 300 302 302 300 299 300 302 302 303 304 305 305 305 305 305 305 305 302 299 297 296 295 294 292 289 286 284 282 281 280 279 279 280 281 281 280 279 278 280 282 283 282 281 280 280 278 278 278 278 277 277 278 278 279 280 281 281 282 282 282 283 283 284 285 286 286 287 288 289 289 290 291 292 293 294 295 297 298 299 300 301 302 303
292 293 295 296 297 298 298 296 297 298 299 298 298 298 298 299 300 301 302 302 302 302 300 299 297 296 295 294 293 291 289 288 286 284 282 280 280 281 281 281 281 281 283 283 282 280 279 280 280 279 277 277 277 277 278 278 279 279 280 280 281 281 281 282 282 283 284 285 286 287 287 288 289 290 290 291 292 293 294 295 296 297 298 299 300 301 301
291 293 294 294 295 295 295 295 296 297 295 294 293 294 294 296 298 299 299 299 299 299 299 298 297 296 295 294 293 292 291 290 289 288 287 286 285 284 283 283 283 284 284 283 282 282 282 282 282 281 280 280 280 280 280 280 280 280 280 280 280 280 281 281 282 283 284 285 286 287 287 288 289 290 291 291 292 293 294 295 296 297 298 298 298 299 299
291 291 292 292 292 293 294 294 294 293 292 292 292 292 293 294 296 296 296 296 297 297 296 295 294 294 294 294 292 291 291 290 289 290 290 291 292 292 291 290 289 288 286 284 284 284 284 284 284 284 284 284 283 283 283 282 281 280 280 280 281 281 282 282 283 284 285 286 287 287 288 289 290 290 291 292 293 294 295 295 296 296 296 296 297 297 298
Height
5887 5887 5888 5888 5889 5889 5890 5891 5891 5892 5892 5893 5893 5893 5894 5894 5894 5895 5895 5895 5895 5895 5895 5895 5895 5894 5894 5894 5893 5893 5892 5892 5891 5891 5890 5889 5889 5888 5887 5886 5886 5885 5884 5883 5882 5881 5879 5878 5877 5875 5873 5872 5870 5868 5866 5865 5863 5861 5859 5857 5855 5853 5850 5848 5845 5842 5838 5834 5830 5826 5822 5819 5815 5811 5807 5802 5798 5794 5790 5786 5782 5780 5776 5770 5765 5762 5758
5887 5888 5888 5888 5889 5889 5890 5891 5891 5892 5892 5893 5893 5893 5893 5894 5894 5894 5894 5894 5895 5895 5895 5894 5894 5894 5894 5893 5893 5893 5892 5892 5891 5890 5890 5889 5888 5887 5887 5886 5885 5884 5883 5882 5881 5880 5879 5877 5876 5874 5872 5871 5869 5867 5866 5864 5862 5860 5858 5855 5853 5851 5848 5846 5844 5842 5839 5835 5831 5827 5823 5818 5814 5810 5806 5802 5797 5793 5789 5785 5781 5777 5774 5770 5764 5761 5758
5887 5887 5888 5888 5889 5889 5890 5890 5891 5891 5892 5892 5893 5893 5893 5893 5893 5894 5894 5894 5894 5894 5894 5894 5894 5894 5893 5893 5893 5892 5892 5891 5890 5890 5889 5888 5887 5887 5886 5885 5884 5883 5882 5881 5880 5879 5878 5876 5875 5873 5871 5870 5868 5867 5865 5863 5861 5859 5856 5854 5851 5849 5846 5843 5840 5838 5835 5832 5828 5825 5821 5817 5812 5808 5804 5801 5797 5793 5788 5784 5779 5774 5771 5769 5763 5759 5757
5886 5887 5887 5888 5889 5889 5889 5890 5890 5891 5891 5892 5892 5892 5893 5893 5893 5893 5893 5893 5893 5893 5893 5893 5893 5893 5893 5892 5892 5892 5891 5891 5890 5889 5888 5888 5887 5886 5885 5884 5883 5882 5882 5881 5879 5878 5877 5875 5873 5872 5870 5869 5867 5865 5864 5862 5860 5858 5855 5853 5850 5847 5844 5841 5838 5835 5832 5828 5824 5821 5818 5814 5810 5806 5802 5799 5795 5792 5787 5782 5777 5772 5770 5768 5762 5756 5752
5885 5885 5886 5887 5888 5888 5889 5889 5890 5890 5891 5891 5891 5892 5892 5892 5892 5893 5893 5893 5893 5893 5893 5892 5892 5892 5892 5892 5891 5891 5890 5890 5889 5888 5887 5887 5886 5885 5884 5883 5882 5881 5881 5879 5878 5877 5875 5874 5872 5871 5869 5867 5866 5864 5862 5860 5858 5856 5854 5852 5849 5847 5844 5840 5837 5833 5831 5828 5823 5820 5816 5812 5808 5805 5801 5797 5794 5791 5786 5781 5775 5770 5766 5765 5761 5755 5749
5883 5884 5885 5886 5887 5887 5888 5889 5889 5889 5890 5890 5890 5891 5891 5891 5892 5892 5892 5892 5892 5892 5892 5892 5891 5891 5891 5891 5890 5890 5889 5889 5888 5887 5886 5885 5885 5884 5883 5882 5881 5880 5879 5878 5877 5875 5874 5872 5871 5869 5868 5866 5865 5863 5861 5859 5857 5855 5853 5850 5848 5846 5843 5840 5836 5832 5828 5825 5822 5818 5814 5810 5806 5803 5799 5796 5792 5789 5784 5779 5774 5768 5764 5760 5757 5754 5748
5883 5883 5884 5885 5885 5886 5887 5887 5888 5888 5889 5889 5889 5890 5890 5890 5890 5891 5891 5891 5891 5891 5891 5891 5891 5890 5890 5890 5889 5889 5888 5887 5887 5886 5885 5884 5883 5883 5882 5881 5880 5879 5878 5877 5875 5874 5873 5871 5870 5868 5867 5865 5863 5861 5859 5857 5855 5853 5851 5848 5846 5844 5841 5839 5836 5832 5827 5823 5820 5816 5813 5810 5805 5801 5798 5794 5790 5785 5782 5778 5773 5767 5763 5758 5755 5752 5749
5882 5883 5883 5884 5884 5885 5885 5886 5886 5887 5887 5888 5888 5888 5889 5889 5889 5889 5889 5889 5889 5890 5889 5889 5889 5889 5889 5888 5888 5888 5887 5886 5885 5885 5884 5883 5882 5881 5881 5880 5879 5878 5877 5875 5874 5873 5871 5870 5868 5867 5865 5863 5862 5860 5858 5856 5853 5851 5849 5846 5844 5842 5839 5837 5835 5832 5827 5823 5819 5815 5811 5808 5804 5801 5797 5793 5788 5783 5779 5776 5771 5765 5761 5758 5754 5750 5748
5880 5881 5882 5883 5883 5884 5884 5885 5885 5885 5886 5886 5886 5887 5887 5887 5887 5888 5888 5888 5888 5888 5888 5888 5888 5887 5887 5887 5886 5886 5885 5885 5884 5883 5883 5882 5881 5880 5879 5878 5877 5876 5875 5874 5873 5871 5870 5868 5867 5865 5863 5861 5860 5858 5856 5854 5851 5849 5846 5844 5841 5839 5836 5834 5832 5830 5826 5822 5819 5815 5810 5806 5803 5800 5796 5791 5787 5782 5778 5774 5769 5762 5759 5756 5752 5748 5745
5878 5879 5880 5881 5881 5882 5882 5883 5883 5884 5884 5884 5884 5885 5885 5885 5885 5885 5885 5885 5885 5885 5885 5885 5885 5885 5885 5885 5884 5884 5883 5883 5882 5881 5881 5880 5879 5878 5878 5876 5875 5874 5873 5872 5871 5869 5868 5866 5865 5863 5861 5859 5857 5855 5853 5851 5849 5847 5844 5842 5839 5836 5834 5831 5829 5827 5824 5820 5817 5813 5809 5805 5802 5798 5794 5790 5786 5781 5776 5772 5767 5761 5757 5753 5750 5746 5742
5876 5877 5877 5878 5879 5880 5880 5881 5881 5882 5882 5882 5882 5883 5883 5883 5883 5883 5883 5883 5883 5883 5883 5883 5883 5883 5882 5882 5882 5881 5881 5880 5880 5879 5879 5878 5877 5876 5875 5874 5873 5872 5871 5870 5868 5867 5865 5864 5862 5861 5859 5857 5855 5853 5851 5848 5846 5844 5841 5839 5836 5833 5830 5828 5825 5823 5821 5818 5815 5811 5806 5801 5798 5795 5791 5787 5783 5779 5774 5770 5764 5759 5756 5752 5748 5745 5740
5874 5875 5875 5876 5876 5877 5877 5878 5879 5879 5880 5880 5880 5880 5881 5881 5881 5881 5880 5880 5880 5880 5880 5880 5880 5880 5879 5879 5879 5878 5878 5878 5877 5876 5876 5875 5874 5873 5872 5872 5871 5869 5868 5867 5866 5864 5863 5861 5860 5858 5856 5855 5853 5850 5848 5846 5843 5841 5838 5836 5833 5830 5827 5825 5822 5819 5817 5815 5812 5809 5805 5799 5794 5791 5788 5784 5780 5776 5773 5770 5764 5757 5754 5750 5746 5742 5737
5872 5872 5873 5873 5874 5874 5875 5875 5876 5876 5877 5877 5877 5877 5878 5878 5878 5878 5878 5877 5877 5877 5877 5877 5877 5877 5876 5876 5876 5875 5875 5874 5874 5873 5873 5872 5871 5870 5869 5868 5867 5866 5865 5864 5863 5861 5860 5859 5857 5855 5853 5852 5850 5848 5845 5842 5840 5838 5835 5833 5830 5827 5824 5821 5818 5815 5813 5811 5808 5805 5802 5797 5792 5789 5785 5781 5777 5772 5770 5769 5764 5756 5751 5747 5743 5739 5735
5869 5870 5870 5871 5871 5872 5872 5872 5873 5873 5874 5874 5874 5874 5875 5875 5875 5875 5875 5874 5874 5874 5874 5874 5874 5874 5873 5873 5872 5872 5872 5871 5870 5870 5869 5868 5868 5867 5866 5865 5864 5863 5862 5861 5859 5858 5857 5855 5854 5853 5850 5849 5847 5845 5842 5840 5837 5834 5832 5829 5827 5824 5821 5818 5814 5811 5809 5807 5805 5802 5799 5794 5790 5786 5782 5777 5773 5768 5765 5764 5762 5755 5749 5744 5741 5737 5733
5865 5866 5867 5867 5868 5868 5869 5869 5870 5870 5870 5871 5871 5871 5871 5871 5871 5871 5871 5871 5871 5871 5871 5871 5870 5870 5870 5869 5869 5869 5868 5868 5867 5866 5866 5865 5864 5863 5862 5861 5860 5859 5858 5857 5856 5854 5853 5852 5850 5849 5848 5845 5844 5842 5840 5837 5835 5832 5829 5826 5823 5820 5817 5814 5810 5807 5803 5801 5799 5797 5795 5791 5786 5782 5778 5773 5769 5765 5761 5759 5757 5753 5746 5742 5738 5734 5730
5862 5862 5863 5863 5864 5865 5865 5865 5866 5866 5867 5867 5867 5868 5867 5867 5867 5867 5867 5867 5867 5867 5867 5867 5867 5867 5866 5866 5865 5865 5864 5864 5863 5863 5862 5861 5860 5860 5859 5858 5857 5856 5854 5853 5852 5851 5849 5848 5846 5845 5844 5842 5840 5839 5837 5835 5832 5829 5826 5823 5820 5817 5814 5811 5807 5803 5799 5796 5794 5790 5787 5784 5781 5777 5774 5770 5765 5761 5757 5754 5753 5749 5743 5739 5735 5730 5726
5859 5859 5859 5859 5860 5860 5861 5861 5861 5862 5862 5863 5863 5863 5864 5864 5864 5864 5863 5863 5863 5863 5863 5863 5863 5863 5862 5862 5862 5861 5861 5860 5859 5859 5858 5857 5856 5856 5855 5854 5853 5852 5850 5849 5848 5847 5845 5844 5842 5841 5840 5838 5836 5834 5833 5831 5828 5825 5822 5819 5817 5813 5811 5808 5803 5799 5796 5792 5790 5787 5783 5779 5775 5772 5769 5765 5762 5758 5753 5749 5747 5744 5738 5734 5731 5727 5723
5856 5856 5856 5855 5855 5856 5856 5856 5857 5857 5857 5858 5858 5858 5859 5859 5860 5860 5859 5859 5859 5858 5858 5858 5858 5858 5858 5858 5857 5857 5857 5856 5855 5855 5854 5853 5852 5851 5850 5849 5848 5847 5846 5845 5843 5842 5841 5839 5838 5837 5836 5834 5832 5830 5829 5827 5825 5822 5819 5815 5812 5810 5807 5804 5800 5796 5792 5788 5785 5783 5781 5776 5771 5768 5765 5761 5758 5755 5750 5746 5742 5738 5734 5731 5727 5724 5720
5852 5852 5852 5852 5851 5851 5851 5851 5851 5852 5852 5852 5852 5853 5853 5853 5854 5854 5855 5854 5854 5854 5854 5854 5853 5853 5853 5853 5853 5852 5852 5852 5851 5850 5850 5849 5847 5846 5845 5845 5843 5842 5841 5840 5838 5837 5836 5835 5833 5832 5831 5829 5827 5826 5825 5823 5820 5817 5814 5811 5807 5804 5803 5801 5796 5791 5788 5784 5780 5777 5776 5773 5768 5764 5762 5759 5755 5751 5748 5744 5740 5735 5731 5728 5725 5721 5717
5849 5849 5848 5848 5847 5847 5847 5846 5846 5846 5846 5846 5847 5847 5847 5847 5848 5848 5849 5849 5849 5849 5849 5849 5848 5848 5848 5848 5847 5847 5847 5846 5846 5846 5845 5844 5843 5842 5841 5839 5838 5837 5836 5835 5833 5832 5831 5830 5828 5826 5826 5824 5822 5821 5820 5819 5817 5813 5809 5806 5803 5799 5797 5796 5792 5787 5783 5780 5776 5772 5769 5766 5763 5760 5758 5755 5752 5748 5745 5742 5739 5734 5729 5726 5723 5719 5715
5846 5845 5844 5843 5843 5842 5842 5842 5841 5841 5841 5840 5841 5840 5840 5841 5841 5841 5842 5842 5843 5843 5843 5843 5843 5843 5843 5842 5842 5842 5841 5841 5841 5840 5839 5839 5838 5837 5835 5834 5833 5832 5831 5830 5828 5826 5825 5824 5822 5821 5820 5818 5817 5816 5814 5814 5813 5810 5805 5802 5799 5795 5793 5791 5788 5784 5780 5776 5773 5769 5765 5760 5757 5756 5755 5751 5747 5743 5740 5738 5735 5732 5727 5723 5720 5717 5712
5843 5842 5841 5840 5839 5837 5837 5836 5836 5836 5835 5835 5834 5834 5834 5834 5834 5835 5835 5835 5836 5837 5837 5837 5837 5837 5837 5837 5837 5836 5836 5835 5835 5835 5834 5833 5832 5831 5830 5829 5827 5827 5825 5824 5823 5821 5819 5818 5817 5815 5815 5813 5811 5811 5809 5807 5808 5805 5801 5797 5794 5791 5789 5787 5784 5781 5778 5774 5770 5766 5763 5758 5752 5750 5751 5748 5743 5740 5736 5733 5730 5727 5723 5720 5716 5713 5709
5839 5838 5837 5836 5834 5833 5832 5831 5830 5830 5830 5829 5829 5828 5827 5828 5828 5828 5828 5828 5829 5830 5830 5831 5831 5831 5831 5831 5831 5830 5830 5829 5830 5829 5828 5827 5827 5826 5825 5823 5822 5821 5819 5818 5817 5815 5814 5813 5811 5810 5810 5807 5805 5806 5804 5802 5802 5800 5796 5793 5790 5786 5783 5781 5779 5776 5775 5774 5769 5762 5758 5756 5750 5747 5746 5743 5739 5737 5733 5729 5726 5723 5719 5716 5713 5709 5706
5835 5834 5833 5831 5830 5829 5827 5825 5825 5824 5823 5823 5823 5822 5821 5821 5821 5821 5821 5821 5822 5823 5823 5824 5825 5824 5824 5824 5824 5824 5823 5823 5823 5823 5822 5821 5821 5819 5818 5817 5815 5815 5813 5811 5811 5809 5808 5807 5805 5804 5804 5802 5800 5800 5800 5798 5797 5796 5792 5789 5786 5782 5778 5775 5772 5770 5770 5771 5766 5758 5754 5751 5747 5745 5743 5739 5735 5733 5729 5725 5722 5719 5715 5712 5709 5705 5702
5830 5829 5828 5826 5825 5823 5822 5820 5819 5818 5818 5817 5816 5816 5815 5814 5814 5815 5815 5815 5815 5816 5817 5818 5818 5817 5817 5818 5818 5818 5817 5817 5817 5816 5815 5815 5814 5813 5812 5810 5809 5808 5806 5805 5804 5803 5802 5801 5799 5798 5798 5796 5794 5795 5795 5793 5792 5790 5788 5785 5780 5776 5773 5769 5765 5764 5765 5764 5760 5754 5750 5748 5744 5741 5738 5734 5731 5729 5726 5722 5718 5715 5711 5708 5705 5701 5698
5826 5825 5823 5821 5819 5817 5816 5814 5813 5812 5812 5811 5810 5809 5809 5808 5808 5808 5808 5808 5809 5809 5809 5812 5812 5811 5811 5812 5812 5812 5811 5811 5810 5810 5809 5808 5807 5806 5805 5803 5802 5801 5799 5797 5797 5796 5795 5795 5793 5792 5791 5790 5789 5789 5790 5788 5786 5785 5784 5781 5776 5771 5767 5761 5757 5759 5761 5758 5752 5746 5743 5744 5743 5738 5733 5729 5726 5724 5722 5718 5714 5710 5707 5704 5701 5697 5694
5822 5821 5818 5816 5813 5811 5809 5808 5807 5806 5806 5805 5804 5803 5802 5802 5801 5801 5801 5802 5803 5802 5802 5805 5806 5805 5806 5807 5806 5805 5805 5804 5804 5803 5802 5801 5800 5799 5798 5796 5795 5793 5792 5791 5790 5789 5789 5789 5787 5786 5784 5783 5782 5783 5784 5783 5781 5779 5778 5776 5772 5767 5762 5755 5751 5752 5753 5752 5747 5740 5735 5737 5739 5735 5729 5725 5721 5718 5717 5714 5709 5706 5703 5700 5697 5694 5689
5817 5816 5814 5812 5809 5806 5803 5801 5800 5799 5799 5799 5799 5798 5797 5796 5795 5795 5795 5796 5796 5795 5796 5798 5799 5799 5801 5802 5801 5800 5799 5798 5797 5797 5796 5795 5794 5792 5791 5790 5788 5786 5785 5784 5784 5783 5783 5782 5781 5780 5778 5776 5774 5776 5778 5777 5775 5774 5774 5772 5767 5762 5757 5752 5747 5745 5744 5744 5741 5735 5730 5730 5730 5728 5724 5720 5716 5713 5712 5709 5705 5702 5699 5695 5693 5690 5686
5812 5810 5808 5806 5804 5801 5798 5795 5794 5793 5793 5793 5792 5792 5791 5790 5790 5790 5789 5789 5789 5789 5789 5791 5793 5793 5794 5796 5796 5795 5794 5793 5792 5791 5789 5788 5787 5786 5784 5783 5781 5780 5779 5778 5777 5777 5777 5776 5776 5775 5773 5769 5767 5769 5772 5771 5768 5769 5770 5768 5762 5757 5753 5749 5745 5740 5738 5737 5735 5730 5727 5725 5723 5721 5719 5716 5711 5708 5706 5704 5701 5697 5695 5691 5688 5685 5681
5807 5805 5803 5800 5797 5795 5792 5790 5788 5787 5786 5786 5786 5786 5786 5785 5785 5784 5783 5782 5783 5782 5782 5784 5786 5788 5788 5790 5791 5790 5788 5787 5786 5785 5783 5782 5780 5779 5777 5776 5775 5773 5772 5771 5770 5770 5770 5771 5771 5769 5767 5764 5761 5761 5764 5763 5761 5764 5767 5764 5757 5751 5748 5745 5741 5736 5733 5732 5728 5725 5723 5721 5717 5715 5714 5711 5706 5702 5701 5699 5696 5693 5690 5687 5684 5680 5677
5802 5800 5797 5795 5791 5789 5786 5784 5782 5781 5781 5780 5780 5780 5780 5779 5779 5778 5778 5777 5776 5776 5775 5777 5779 5781 5782 5784 5785 5784 5782 5781 5780 5779 5777 5775 5774 5772 5771 5769 5768 5766 5765 5764 5764 5763 5764 5765 5764 5762 5761 5759 5755 5754 5756 5755 5753 5758 5763 5758 5751 5746 5743 5741 5737 5732 5728 5725 5722 5720 5719 5716 5712 5709 5708 5706 5701 5697 5695 5693 5691 5688 5685 5682 5679 5676 5672
5797 5795 5792 5789 5786 5783 5780 5778 5776 5776 5775 5775 5774 5774 5774 5774 5773 5773 5772 5771 5771 5770 5769 5770 5772 5774 5775 5777 5778 5777 5775 5774 5773 5771 5770 5768 5767 5765 5764 5762 5761 5759 5758 5758 5757 5757 5758 5758 5757 5755 5755 5753 5749 5748 5749 5748 5748 5753 5755 5750 5745 5742 5738 5735 5732 5728 5722 5718 5714 5712 5713 5712 5708 5704 5702 5700 5697 5692 5690 5688 5686 5683 5680 5678 5675 5671 5668
5792 5790 5787 5784 5781 5778 5775 5772 5770 5770 5769 5769 5769 5768 5768 5768 5768 5767 5767 5766 5765 5765 5764 5764 5765 5766 5768 5769 5770 5770 5768 5766 5764 5762 5760 5759 5759 5757 5756 5755 5753 5751 5752 5752 5750 5750 5751 5752 5751 5748 5747 5747 5744 5742 5742 5744 5746 5747 5745 5742 5740 5737 5732 5729 5727 5722 5717 5713 5709 5705 5704 5704 5703 5701 5697 5694 5691 5688 5685 5683 5681 5678 5675 5673 5670 5666 5663
5786 5784 5781 5778 5775 5772 5769 5767 5765 5764 5764 5763 5764 5763 5763 5762 5762 5762 5761 5760 5759 5759 5759 5759 5759 5760 5761 5761 5761 5761 5760 5758 5756 5754 5752 5751 5750 5749 5747 5746 5745 5744 5745 5744 5743 5744 5745 5745 5743 5741 5741 5741 5739 5736 5738 5742 5743 5739 5736 5735 5734 5729 5725 5723 5721 5717 5712 5709 5706 5702 5698 5696 5697 5696 5693 5690 5686 5683 5680 5677 5675 5673 5670 5668 5665 5662 5659
5780 5778 5775 5772 5769 5767 5764 5761 5759 5758 5758 5757 5757 5758 5758 5757 5757 5756 5755 5754 5753 5753 5753 5753 5753 5753 5753 5753 5752 5752 5752 5750 5748 5746 5745 5743 5742 5741 5739 5738 5738 5737 5736 5736 5737 5740 5740 5737 5735 5735 5736 5735 5733 5733 5736 5738 5736 5733 5730 5729 5726 5721 5717 5715 5713 5711 5708 5706 5703 5698 5694 5691 5690 5689 5688 5685 5682 5678 5676 5673 5669 5667 5666 5663 5660 5657 5654
5775 5772 5769 5766 5764 5761 5759 5756 5754 5753 5752 5751 5751 5752 5752 5752 5751 5751 5750 5749 5748 5747 5747 5747 5747 5747 5746 5745 5745 5745 5744 5743 5741 5739 5737 5736 5735 5733 5731 5731 5731 5730 5728 5729 5733 5734 5732 5729 5728 5728 5729 5729 5730 5732 5733 5731 5729 5727 5725 5721 5717 5714 5709 5704 5702 5702 5703 5702 5699 5694 5689 5686 5684 5682 5680 5679 5676 5673 5671 5668 5665 5662 5660 5658 5655 5652 5649
5769 5767 5764 5761 5758 5755 5753 5751 5749 5748 5747 5746 5746 5746 5746 5745 5745 5745 5745 5744 5743 5742 5741 5741 5741 5740 5738 5738 5738 5738 5736 5736 5735 5732 5730 5729 5728 5726 5725 5725 5724 5722 5723 5725 5728 5727 5724 5722 5721 5721 5723 5726 5729 5730 5728 5724 5722 5720 5717 5713 5710 5707 5702 5696 5693 5692 5693 5694 5693 5689 5685 5682 5679 5675 5673 5673 5671 5668 5665 5663 5660 5656 5654 5652 5649 5646 5643
5763 5761 5758 5755 5753 5750 5748 5746 5744 5743 5741 5740 5740 5740 5740 5740 5740 5739 5739 5739 5738 5737 5736 5735 5735 5734 5732 5731 5731 5730 5728 5728 5728 5726 5725 5723 5720 5718 5719 5719 5716 5714 5717 5720 5722 5720 5717 5715 5715 5714 5717 5723 5727 5726 5722 5718 5714 5711 5708 5705 5702 5700 5696 5691 5686 5684 5684 5685 5684 5682 5680 5679 5676 5671 5667 5666 5665 5663 5659 5657 5654 5651 5649 5646 5643 5640 5638
5758 5756 5753 5750 5748 5746 5744 5742 5740 5738 5736 5735 5734 5734 5734 5734 5734 5734 5734 5734 5733 5732 5731 5730 5730 5728 5725 5725 5725 5723 5720 5720 5721 5720 5718 5716 5713 5712 5712 5712 5708 5707 5710 5713 5715 5714 5710 5709 5708 5708 5712 5718 5723 5720 5714 5710 5706 5703 5699 5695 5693 5692 5690 5686 5681 5678 5676 5675 5673 5671 5671 5670 5669 5667 5664 5661 5660 5657 5654 5651 5648 5645 5643 5640 5638 5635 5632
5753 5751 5749 5746 5743 5742 5740 5738 5736 5734 5732 5730 5730 5729 5729 5729 5729 5728 5728 5728 5727 5726 5725 5724 5724 5722 5720 5719 5719 5717 5714 5714 5714 5712 5710 5710 5708 5706 5705 5704 5701 5700 5703 5707 5709 5707 5704 5703 5704 5704 5707 5712 5713 5710 5705 5701 5698 5694 5690 5686 5685 5683 5681 5677 5674 5672 5670 5668 5665 5663 5661 5660 5659 5659 5658 5656 5654 5652 5649 5646 5643 5639 5637 5635 5632 5629 5625
5748 5747 5744 5742 5740 5738 5736 5734 5732 5730 5728 5726 5725 5724 5724 5724 5723 5722 5722 5722 5721 5719 5718 5718 5717 5715 5714 5714 5713 5711 5708 5707 5707 5705 5704 5703 5702 5700 5699 5697 5694 5694 5697 5701 5700 5698 5698 5698 5699 5701 5703 5704 5701 5698 5695 5692 5688 5684 5680 5677 5676 5676 5673 5669 5666 5665 5663 5661 5659 5657 5655 5652 5650 5649 5648 5648 5646 5644 5642 5640 5637 5634 5630 5628 5625 5622 5618
5743 5742 5740 5738 5735 5733 5732 5730 5728 5726 5724 5722 5721 5720 5719 5718 5717 5716 5716 5715 5714 5713 5712 5711 5710 5709 5708 5707 5705 5704 5702 5700 5698 5698 5698 5696 5695 5694 5693 5690 5688 5689 5692 5693 5693 5692 5692 5693 5694 5696 5697 5695 5691 5688 5686 5682 5678 5675 5671 5669 5668 5667 5665 5662 5659 5658 5656 5655 5652 5651 5649 5647 5643 5641 5639 5638 5638 5637 5634 5632 5630 5629 5626 5622 5618 5615 5611
5738 5736 5735 5733 5731 5729 5728 5726 5724 5722 5720 5717 5716 5715 5714 5713 5711 5710 5709 5708 5708 5706 5705 5705 5703 5702 5701 5700 5698 5697 5695 5692 5691 5690 5689 5688 5688 5687 5686 5684 5684 5684 5684 5685 5686 5687 5687 5689 5689 5690 5689 5686 5683 5681 5677 5673 5670 5667 5663 5661 5661 5659 5657 5655 5653 5651 5649 5648 5646 5644 5643 5641 5638 5635 5631 5628 5627 5628 5627 5624 5621 5620 5619 5617 5613 5609 5605
5731 5731 5729 5728 5726 5724 5723 5722 5720 5718 5716 5713 5711 5710 5709 5707 5706 5704 5703 5701 5701 5699 5698 5697 5696 5695 5693 5692 5691 5690 5687 5685 5684 5683 5681 5680 5680 5679 5678 5678 5679 5679 5678 5679 5681 5682 5683 5685 5684 5681 5679 5678 5676 5672 5668 5665 5663 5660 5656 5653 5653 5651 5649 5648 5646 5645 5643 5641 5639 5637 5636 5634 5632 5630 5627 5623 5620 5619 5619 5618 5615 5612 5610 5608 5606 5603 5600
5726 5725 5724 5723 5721 5720 5718 5717 5715 5714 5711 5709 5708 5706 5704 5702 5700 5699 5697 5695 5694 5692 5690 5689 5689 5687 5686 5685 5684 5682 5680 5678 5677 5676 5675 5673 5672 5672 5672 5671 5671 5672 5672 5673 5675 5676 5678 5679 5676 5672 5671 5670 5666 5663 5660 5658 5656 5654 5650 5646 5644 5643 5642 5640 5638 5637 5635 5633 5631 5630 5628 5626 5624 5623 5621 5619 5616 5612 5610 5609 5607 5605 5603 5601 5599 5596 5593
5719 5719 5718 5717 5717 5716 5714 5712 5711 5709 5706 5705 5703 5702 5700 5698 5696 5693 5692 5690 5687 5685 5683 5682 5681 5680 5678 5677 5676 5675 5673 5671 5670 5669 5668 5665 5664 5665 5665 5664 5664 5665 5666 5667 5669 5671 5672 5670 5667 5665 5662 5659 5655 5652 5651 5649 5647 5645 5643 5641 5637 5636 5634 5632 5630 5629 5626 5624 5622 5620 5618 5616 5614 5612 5611 5611 5610 5607 5603 5600 5598 5596 5594 5592 5591 5590 5588
5713 5712 5712 5711 5711 5710 5710 5708 5706 5703 5701 5700 5698 5696 5695 5693 5691 5688 5686 5684 5682 5680 5677 5676 5674 5672 5671 5669 5668 5667 5666 5664 5662 5662 5661 5658 5656 5657 5657 5656 5657 5659 5660 5660 5664 5666 5664 5660 5659 5656 5651 5646 5645 5643 5640 5639 5637 5636 5634 5633 5631 5629 5627 5625 5623 5621 5618 5615 5613 5611 5609 5607 5604 5602 5600 5600 5601 5600 5597 5593 5589 5587 5584 5581 5580 5581 5580
5706 5705 5705 5704 5704 5704 5704 5703 5701 5699 5696 5694 5692 5690 5688 5687 5685 5682 5680 5679 5677 5674 5671 5669 5667 5665 5664 5662 5660 5659 5658 5657 5654 5654 5654 5651 5648 5649 5650 5648 5648 5652 5655 5656 5658 5659 5655 5650 5648 5646 5640 5635 5635 5633 5629 5628 5628 5627 5625 5625 5623 5621 5620 5618 5615 5613 5610 5607 5604 5603 5601 5598 5595 5592 5590 5589 5590 5591 5590 5586 5582 5579 5575 5571 5570 5570 5570
5699 5698 5698 5697 5697 5698 5698 5696 5695 5694 5692 5689 5687 5684 5682 5680 5678 5675 5673 5672 5670 5667 5665 5662 5660 5657 5656 5655 5652 5651 5651 5649 5646 5645 5646 5645 5643 5642 5641 5638 5639 5647 5652 5651 5649 5648 5643 5637 5634 5633 5629 5625 5623 5622 5620 5619 5619 5618 5617 5616 5614 5612 5611 5609 5607 5604 5602 5599 5596 5594 5592 5589 5586 5583 5580 5578 5579 5580 5581 5579 5575 5572 5568 5564 5561 5560 5560
5692 5691 5691 5691 5690 5691 5690 5689 5688 5689 5687 5684 5681 5678 5675 5673 5671 5669 5666 5665 5663 5661 5658 5656 5652 5650 5648 5647 5644 5643 5642 5641 5638 5636 5638 5639 5638 5636 5633 5630 5633 5642 5646 5640 5635 5633 5630 5623 5619 5619 5618 5615 5613 5613 5612 5611 5610 5609 5607 5605 5603 5601 5600 5599 5597 5595 5593 5591 5588 5585 5582 5579 5576 5572 5569 5568 5567 5568 5569 5569 5567 5564 5560 5558 5555 5552 5550
5684 5684 5685 5684 5683 5682 5682 5681 5682 5681 5680 5677 5674 5671 5668 5666 5664 5662 5659 5657 5656 5654 5651 5647 5644 5641 5640 5638 5636 5634 5633 5632 5631 5629 5630 5633 5633 5629 5625 5624 5629 5633 5632 5626 5622 5620 5617 5612 5609 5608 5607 5606 5605 5604 5602 5600 5599 5598 5597 5594 5592 5590 5589 5588 5587 5585 5583 5582 5579 5576 5572 5569 5567 5563 5559 5557 5557 5557 5557 5557 5557 5555 5551 5549 5547 5544 5541
5676 5676 5677 5677 5675 5674 5674 5674 5674 5673 5671 5670 5667 5664 5662 5660 5658 5655 5652 5649 5647 5645 5642 5638 5635 5633 5631 5628 5627 5625 5624 5624 5623 5623 5624 5627 5628 5623 5618 5617 5619 5618 5615 5613 5612 5610 5606 5602 5600 5598 5597 5596 5596 5594 5591 5589 5588 5587 5587 5585 5582 5579 5578 5577 5576 5574 5572 5571 5569 5566 5563 5560 5557 5553 5550 5548 5548 5546 5545 5545 5546 5546 5542 5539 5538 5535 5531